This is the latest recevied weather packets stored in our database for station/object KB9PMA-1. If no packets are shown the sender has not sent any weather packets the latest 10 day(s).
| Time | Temp. | Humidity | Pressure | Rain* | Wind** | Luminosity | Snow |
|---|---|---|---|---|---|---|---|
| 1777461794 | 11.11° C | 96% | 1012.3 hPa | 0.25 mm | - | - | - |
| 1777461494 | 11.11° C | 96% | 1012.3 hPa | 0.25 mm | - | - | - |
| 1777461194 | 11.11° C | 96% | 1012.4 hPa | 0.25 mm | - | - | - |
| 1777460894 | 11.11° C | 96% | 1012.3 hPa | 0 mm | - | - | - |
| 1777460594 | 11.11° C | 96% | 1012.4 hPa | 0 mm | - | - | - |
| 1777460294 | 11.11° C | 96% | 1012.4 hPa | 0 mm | - | - | - |
| 1777459994 | 11.11° C | 96% | 1012.6 hPa | 0 mm | - | - | - |
| 1777459694 | 11.11° C | 96% | 1012.7 hPa | 0 mm | - | - | - |
| 1777459394 | 11.11° C | 96% | 1012.9 hPa | 0 mm | - | - | - |
| 1777459094 | 11.11° C | 96% | 1012.9 hPa | 0 mm | - | - | - |
| 1777458794 | 11.11° C | 96% | 1012.7 hPa | 0 mm | - | - | - |
| 1777458494 | 11.11° C | 96% | 1012.7 hPa | 0 mm | - | - | - |
| 1777458194 | 11.11° C | 96% | 1012.6 hPa | 0 mm | - | - | - |
| 1777457894 | 11.11° C | 96% | 1012.6 hPa | 0.25 mm | - | - | - |
| 1777457594 | 11.11° C | 96% | 1012.8 hPa | 0.25 mm | - | - | - |
| 1777457294 | 11.11° C | 96% | 1012.8 hPa | 0.25 mm | - | - | - |
| 1777456994 | 11.11° C | 96% | 1013.2 hPa | 0.51 mm | - | - | - |
| 1777456694 | 11.11° C | 96% | 1013.4 hPa | 0.51 mm | - | - | - |
| 1777456394 | 11.11° C | 96% | 1012.9 hPa | 0.51 mm | - | - | - |
| 1777456094 | 11.11° C | 96% | 1012.7 hPa | 0.51 mm | - | - | - |
| 1777455794 | 11.11° C | 96% | 1013.2 hPa | 0.76 mm | - | - | - |
| 1777455494 | 11.11° C | 96% | 1013.3 hPa | 1.02 mm | - | - | - |
| 1777455194 | 11.11° C | 96% | 1013.3 hPa | 1.52 mm | - | - | - |
| 1777454894 | 11.11° C | 96% | 1013.3 hPa | 1.78 mm | - | - | - |
| 1777454594 | 11.11° C | 96% | 1013.3 hPa | 2.03 mm | - | - | - |
* Rain latest hour (hover to see other rain measurements)
** Current wind speed in m/s (hover to see current wind gust speed)